Location: Tel Aviv
(32.0670°N, 34.7670°E)
Time: 14:12:15
(UTC+03:00)

Explorer 11/Cluster Stage 4 - Pass Details

Date: 12 September 2024
Orbit: 464 x 1208 km, 28.8° (Epoch: 06 October)

Event Time Altitude Azimuth Distance (km) Brightness Sun altitude
Rises 13:00:54 0° 275° (W) 4,110 10.3 61.3°
Reaches altitude 10° 13:04:01 10° 269° (W) 3,127 9.9 61.1°
Maximum altitude 13:11:19 42° 201° (SSW) 1,546 9.9 60.7°
Drops below altitude 10° 13:17:51 10° 133° (SE) 2,792 9.7 60.3°
Sets 13:20:29 0° 126° (SE) 3,634 10.1 60.0°
